Weather History for Abbeville, LA

Change the Weather History Date:

Friday, November 30, 2012

  Actual Average (KARA) Record (KARA)
Temperature  
Mean Temperature 62 °F 57 °F  
Max Temperature 75 °F 68 °F 81 °F (2006)
Min Temperature 50 °F 47 °F 23 °F (1976)
Degree Days  
Heating Degree Days 2 9  
Month to date heating degree days 161  
Since 1 July heating degree days 195  
Growing Degree Days 12 (Base 50)    
Moisture  
Dew Point 56 °F    
Average Humidity 87    
Maximum Humidity 100    
Minimum Humidity 54    
Precipitation  
Precipitation 0.00 in 0.20 in 2.56 in (1977)
Month to date precipitation 4.25  
Year to date precipitation 54.69  
Sea Level Pressure  
Sea Level Pressure 30.21 in    
Wind  
Wind Speed 4 mph ()    
Max Wind Speed 9 mph    
Max Gust Speed -    
Visibility 8.1 miles    
Events Fog    
T = Trace of Precipitation, MM = Missing Value Source: Averaged Metar Reports

Daily Weather History Graph

Daily Weather History Graph

Search for Another Location

Airport:

Trip Planner

Search our weather history database for the weather conditions in past years. The results will help you decide how hot, cold, wet, or windy it might be!

Date:

Astronomy

Nov. 30, 2012 Rise Set
Actual Time 6:46 AM CST 5:08 PM CST
Civil Twilight 6:20 AM CST 5:34 PM CST
Nautical Twilight 5:50 AM CST 6:03 PM CST
Astronomical Twilight 5:21 AM CST 6:32 PM CST
Moon 7:02 PM CST (11/30) 8:18 AM CST (11/30)
Length of Visible Light 11h 13m
Length of Day
10h 22m
Waning Gibbous, 96% of the Moon is Illuminated
Nov 30
Waning Gibbous
Dec 6
Last Quarter
Dec 13
New
Dec 19
First Quarter
Dec 28
Full

Hourly Weather History & Observations

Time (CST) Temp. Dew Point Humidity Pressure Visibility Wind Dir Wind Speed Gust Speed Precip Events Conditions
12:15 AM 53.2 °F 53.2 °F 100% 30.25 in 7.0 mi East 4.6 mph - N/A   Clear
12:35 AM 53.6 °F 53.6 °F 100% 30.25 in 7.0 mi East 4.6 mph - N/A   Clear
12:55 AM 53.6 °F 53.6 °F 100% 30.24 in 7.0 mi East 5.8 mph - N/A   Clear
1:15 AM 53.8 °F 53.8 °F 100% 30.24 in 7.0 mi East 5.8 mph - N/A   Clear
1:35 AM 53.6 °F 53.6 °F 100% 30.24 in 7.0 mi East 5.8 mph - N/A   Clear
1:55 AM 52.9 °F 52.9 °F 100% 30.24 in 5.0 mi East 3.5 mph - N/A   Clear
2:15 AM 52.9 °F 52.9 °F 100% 30.23 in 5.0 mi East 3.5 mph - N/A   Clear
2:35 AM 52.3 °F 52.3 °F 100% 30.23 in 5.0 mi East 3.5 mph - N/A   Clear
2:55 AM 52.5 °F 52.5 °F 100% 30.23 in 5.0 mi East 5.8 mph - N/A   Clear
3:15 AM 52.2 °F 52.2 °F 100% 30.23 in 5.0 mi Calm Calm - N/A   Clear
3:35 AM 52.0 °F 52.0 °F 100% 30.22 in 5.0 mi East 4.6 mph - N/A   Clear
3:55 AM 52.5 °F 52.5 °F 100% 30.22 in 7.0 mi East 4.6 mph - N/A   Clear
4:15 AM 52.2 °F 52.2 °F 100% 30.22 in 7.0 mi Calm Calm - N/A   Clear
4:35 AM 51.8 °F 51.8 °F 100% 30.22 in 7.0 mi Calm Calm - N/A   Clear
4:55 AM 51.1 °F 51.1 °F 100% 30.22 in 7.0 mi Calm Calm - N/A   Clear
5:15 AM 51.1 °F 51.1 °F 100% 30.22 in 7.0 mi Calm Calm - N/A   Clear
5:35 AM 51.3 °F 51.3 °F 100% 30.22 in 7.0 mi East 3.5 mph - N/A   Clear
5:55 AM 51.4 °F 51.4 °F 100% 30.23 in 10.0 mi East 3.5 mph - N/A   Clear
6:15 AM 51.6 °F 50.5 °F 96% 30.23 in 10.0 mi East 3.5 mph - N/A   Clear
6:35 AM 51.8 °F 50.5 °F 95% 30.23 in 10.0 mi Calm Calm - N/A   Scattered Clouds
6:55 AM 50.9 °F 50.5 °F 99% 30.24 in 10.0 mi East 4.6 mph - N/A   Clear
7:15 AM 52.0 °F 51.3 °F 97% 30.24 in 10.0 mi Calm Calm - N/A   Clear
7:35 AM 52.7 °F 52.3 °F 99% 30.25 in 10.0 mi Calm Calm - N/A   Clear
7:55 AM 55.0 °F 54.0 °F 96% 30.26 in 10.0 mi East 3.5 mph - N/A   Clear
8:15 AM 56.7 °F 55.4 °F 96% 30.26 in 10.0 mi East 4.6 mph - N/A   Clear
8:35 AM 58.8 °F 57.0 °F 94% 30.25 in 10.0 mi East 6.9 mph - N/A   Clear
8:55 AM 61.2 °F 58.1 °F 90% 30.26 in 10.0 mi ESE 6.9 mph - N/A   Clear
9:15 AM 63.1 °F 59.2 °F 87% 30.26 in 10.0 mi East 5.8 mph - N/A   Clear
9:35 AM 64.4 °F 59.5 °F 84% 30.27 in 10.0 mi East 4.6 mph - N/A   Mostly Cloudy
9:55 AM 65.1 °F 60.3 °F 84% 30.26 in 10.0 mi East 4.6 mph - N/A   Overcast
10:15 AM 67.5 °F 60.8 °F 79% 30.26 in 10.0 mi SE 6.9 mph - N/A   Scattered Clouds
10:35 AM 68.9 °F 60.6 °F 75% 30.26 in 10.0 mi SSE 9.2 mph - N/A   Clear
10:55 AM 70.7 °F 61.0 °F 71% 30.26 in 10.0 mi SE 5.8 mph - N/A   Clear
11:15 AM 71.2 °F 60.4 °F 69% 30.24 in 10.0 mi SE 4.6 mph - N/A   Scattered Clouds
11:35 AM 72.5 °F 60.3 °F 65% 30.24 in 10.0 mi SE 4.6 mph - N/A   Scattered Clouds
11:55 AM 73.8 °F 59.7 °F 61% 30.23 in 10.0 mi South 8.1 mph - N/A   Clear
12:15 PM 73.4 °F 59.0 °F 61% 30.22 in 10.0 mi South 6.9 mph - N/A   Scattered Clouds
12:35 PM 73.8 °F 58.8 °F 59% 30.21 in 10.0 mi SSE 6.9 mph - N/A   Scattered Clouds
12:55 PM 74.3 °F 57.9 °F 57% 30.20 in 10.0 mi SSE 3.5 mph - N/A   Clear
1:15 PM 75.0 °F 57.7 °F 55% 30.20 in 10.0 mi ESE 4.6 mph - N/A   Scattered Clouds
1:35 PM 75.2 °F 57.6 °F 54% 30.19 in 10.0 mi South 4.6 mph - N/A   Scattered Clouds
1:55 PM 74.8 °F 58.1 °F 56% 30.18 in 10.0 mi South 3.5 mph - N/A   Scattered Clouds
2:15 PM 74.8 °F 58.1 °F 56% 30.18 in 10.0 mi South 4.6 mph - N/A   Clear
2:35 PM 74.7 °F 58.1 °F 56% 30.17 in 10.0 mi SSE 5.8 mph - N/A   Clear
2:55 PM 74.5 °F 58.8 °F 58% 30.17 in 10.0 mi SSE 6.9 mph - N/A   Clear
3:15 PM 73.8 °F 58.8 °F 59% 30.16 in 10.0 mi SSE 6.9 mph - N/A   Clear
3:35 PM 73.4 °F 58.3 °F 59% 30.17 in 10.0 mi South 6.9 mph - N/A   Clear
3:55 PM 73.2 °F 58.1 °F 59% 30.17 in 10.0 mi SSW 4.6 mph - N/A   Clear
4:15 PM 72.1 °F 57.6 °F 60% 30.17 in 10.0 mi South 5.8 mph - N/A   Clear
4:35 PM 70.5 °F 57.7 °F 64% 30.16 in 10.0 mi SSE 5.8 mph - N/A   Clear
4:55 PM 68.5 °F 57.4 °F 67% 30.17 in 10.0 mi South 3.5 mph - N/A   Clear
5:15 PM 66.4 °F 58.1 °F 75% 30.17 in 10.0 mi SSE 3.5 mph - N/A   Clear
5:35 PM 65.8 °F 59.2 °F 79% 30.18 in 10.0 mi SE 3.5 mph - N/A   Clear
5:55 PM 64.8 °F 59.5 °F 83% 30.18 in 10.0 mi SE 4.6 mph - N/A   Clear
6:15 PM 62.6 °F 59.4 °F 89% 30.18 in 10.0 mi SE 4.6 mph - N/A   Clear
6:35 PM 60.6 °F 59.7 °F 97% 30.19 in 10.0 mi South 4.6 mph - N/A   Clear
6:55 PM 61.9 °F 60.6 °F 96% 30.19 in 10.0 mi SSE 5.8 mph - N/A   Clear
7:15 PM 61.7 °F 60.8 °F 97% 30.19 in 10.0 mi SSE 3.5 mph - N/A   Clear
7:35 PM 61.3 °F 60.8 °F 98% 30.19 in 10.0 mi SSE 4.6 mph - N/A   Clear
7:55 PM 60.3 °F 60.1 °F 99% 30.19 in 10.0 mi SSE 4.6 mph - N/A   Clear
8:15 PM 60.4 °F 60.3 °F 99% 30.20 in 10.0 mi South 4.6 mph - N/A   Clear
8:35 PM 59.9 °F 59.9 °F 100% 30.20 in 10.0 mi SE 3.5 mph - N/A   Clear
8:55 PM 57.9 °F 57.9 °F 100% 30.20 in 2.5 mi Calm Calm - N/A   Clear
9:15 PM 57.4 °F 57.4 °F 100% 30.20 in 5.0 mi Calm Calm - N/A   Clear
9:35 PM 57.6 °F 57.6 °F 100% 30.20 in 3.0 mi Calm Calm - N/A   Clear
9:55 PM 55.9 °F 55.9 °F 100% 30.21 in 0.5 mi Calm Calm - N/A Fog Fog
10:15 PM 56.3 °F 56.3 °F 100% 30.20 in 2.5 mi East 3.5 mph - N/A   Clear
10:35 PM 56.3 °F 56.3 °F 100% 30.21 in 0.8 mi Calm Calm - N/A   Mist
10:55 PM 56.8 °F 56.8 °F 100% 30.20 in 1.2 mi East 4.6 mph - N/A   Mist
11:15 PM 57.6 °F 57.6 °F 100% 30.20 in 2.5 mi East 3.5 mph - N/A   Clear
11:35 PM 57.2 °F 57.2 °F 100% 30.20 in 2.5 mi East 3.5 mph - N/A   Clear
11:55 PM 57.4 °F 57.4 °F 100% 30.19 in 5.0 mi East 4.6 mph - N/A   Clear